Location: Marcé
(47.5801°N, 0.3280°W)
Time: 08:23:21
(UTC+01:00)

Courier 1B - Pass Details

Date: 04 December 2021
Orbit: 962 x 1209 km, 28.3° (Epoch: 23 January)

Event Time Altitude Azimuth Distance (km) Brightness Sun altitude
Rises 20:12:58 0° 241° (WSW) 3,942 11.6 -29.8°
Reaches altitude 10° 20:17:22 10° 218° (SW) 2,925 10.4 -30.6°
Maximum altitude 20:20:45 14° 190° (S) 2,593 9.8 -31.1°
Enters shadow 20:22:15 13° 176° (S) 2,634 9.7 -31.4°
Drops below altitude 10° 20:24:03 10° 161° (SSE) 2,834 - -31.7°
Sets 20:28:12 0° 137° (SE) 3,734 - -32.4°
